Regional Weather Roundup
Issued by NWS Upton, NY

Current Version | Previous Version | Graphics & Text | Print | Product List | Glossary Off
Versions: 1 2 3 4 5 6 7 8 9 10 11 12 13 14 15 16 17 18 19 20 21 22 23 24 25 26 27 28 29 30 31 32 33 34 35 36 37 38 39 40 41 42 43 44 45 46 47 48 49 50

000
ASUS41 KOKX 160105
RWROKX

REGIONAL WEATHER ROUNDUP
NATIONAL WEATHER SERVICE NEW YORK NY
900 PM EDT MON SEP 15 2014

NOTE: "FAIR" INDICATES FEW OR NO CLOUDS BELOW 12,000 FEET WITH NO
SIGNIFICANT WEATHER AND/OR OBSTRUCTIONS TO VISIBILITY.

NYZ071-072-176-178-NJZ106-104-160200-
NEW YORK CITY METRO AREA


CITY           SKY/WX    TMP DP  RH WIND       PRES   REMARKS
CENTRAL PARK   PTCLDY    64  49  57 CALM      30.13F
LAGUARDIA APRT MOCLDY    65  49  56 S12       30.10F
KENNEDY INTL   MOCLDY    65  50  58 S9        30.11F
NEWARK/LIBERTY MOCLDY    64  50  60 S8        30.10F
BRNX BOT. GARD   N/A     63  48  59 E3        30.12F
TETERBORO      PTCLDY    64  49  57 S3        30.09F
$$

NYZ177-179-078>081-160200-
LONG ISLAND NEW YORK

CITY           SKY/WX    TMP DP  RH WIND       PRES   REMARKS
FARMINGDALE    PTCLDY    62  49  62 S6        30.12F
ISLIP          MOCLDY    58  48  69 CALM      30.11S
SHIRLEY        PTCLDY    55  47  74 CALM      30.13S
WESTHAMPTON    PTCLDY    51  44  77 N3        30.14S
MONTAUK POINT    N/A     60  51  72 CALM      30.14S
$$

NYZ052-065-067-160200-
HUDSON VALLEY

CITY           SKY/WX    TMP DP  RH WIND       PRES   REMARKS
WHITE PLAINS   PTCLDY    59  48  67 CALM      30.10F
NEWBURGH       CLEAR     59  50  72 CALM      30.10
MONTGOMERY     PTCLDY    53  49  86 SW3       30.09F
POUGHKEEPSIE   PTCLDY    55  50  83 CALM      30.08F
ALBANY         CLOUDY    57  45  64 CALM      30.11F
$$

NJZ001-105-106-008-010-013-015-019>022-104-160200-
NEW JERSEY

CITY           SKY/WX    TMP DP  RH WIND       PRES   REMARKS
NEWARK/LIBERTY MOCLDY    64  50  60 S8        30.10F
TETERBORO      PTCLDY    64  49  57 S3        30.09F
CALDWELL       PTCLDY    60  48  64 CALM      30.10F
MORRISTOWN     CLEAR     55  50  82 CALM      30.10F
SOMERVILLE     PTCLDY    54  50  86 CALM      30.09S
LINDEN         FAIR      67  53  61 S5        30.12F
SUSSEX         MOCLDY    57  50  77 CALM      30.09F
ANDOVER          N/A     55  51  86 CALM      30.10F
TRENTON        PTCLDY    63  47  55 CALM      30.10F
MILLVILLE      PTCLDY    56  52  86 CALM      30.12S
ATLANTIC CITY  CLEAR     56  54  93 CALM      30.12F
WRIGHTSTOWN    PTCLDY    59  54  85 SE10      30.07F
TOMS RIVER     PTCLDY    54  50  87 CALM      30.13S
BELMAR         PTCLDY    59  48  67 S5        30.12F
$$

PAZ047>061-062-071-160200-
EASTERN PENNSYLVANIA

CITY           SKY/WX    TMP DP  RH WIND       PRES   REMARKS
PHILADELPHIA   MOCLDY    67  50  54 S6        30.11F
ALLENTOWN      MOCLDY    58  50  75 CALM      30.10F
SCRANTON       PTCLDY    58  47  66 CALM      30.10R
$$

CTZ002-004>006-009-010-012-RIZ004-006-007-MAZ004-011-015-160200-
SOUTHERN NEW ENGLAND
 IN CT

CITY           SKY/WX    TMP DP  RH WIND       PRES   REMARKS
BRADLEY INTL   MOCLDY    59  44  57 CALM      30.11F
HARTFORD       PTCLDY    58  48  69 SE9       30.11F
DANBURY        PTCLDY    53  49  86 SW3       30.12F
WTRBRY/OXFORD  NOT AVBL
BRIDGEPORT     PTCLDY    62  49  62 CALM      30.11F
MERIDEN        MOCLDY    53  47  79 CALM      30.12F
NEW HAVEN      CLOUDY    57  47  69 CALM      30.12F
CHESTER        FAIR      54  50  87 CALM      30.13F
GROTON         PTCLDY    54  49  83 CALM      30.12S
WILLIMANTIC    PTCLDY    54  49  83 CALM      30.14S

 IN RI

CITY           SKY/WX    TMP DP  RH WIND       PRES   REMARKS
PROVIDENCE     PTCLDY    58  49  72 W5        30.14R
BLOCK ISLAND   PTCLDY    59  46  63 SW6       30.13S
WESTERLY       PTCLDY    54  49  83 CALM      30.13S

 IN MA

CITY           SKY/WX    TMP DP  RH WIND       PRES   REMARKS
BOSTON         PTCLDY    57  47  69 S7        30.15R
WORCESTER      PTCLDY    52  43  71 CALM      30.13F
WESTFIELD      MOCLDY    54  49  83 CALM      30.12S
PROVINCETOWN   CLOUDY    55  46  71 E5        30.15R
NANTUCKET      CLOUDY    59  50  72 E6        30.14R
$$

ANZ330-335-338-340-345-350-353-355-160200-
COASTAL MARINE OBSERVATIONS


STATION/POSITION TIME  SKY/WX   TEMP    WIND        PRES    VSBY  WAVE
                                AIR SEA DIR/SP/G                  HT/PER
                 (UTC)          (F)     (DEG/KT/KT) (MB)    (MI)  (FT/S)
NY HARB ENTRANCE NOT AVBL
4S FIRE IS       NOT AVBL
23SW MTP         0100                                 N/A           1/11
HUDSON CANYON    0100            65 74   10/  6/ 10 1020.2          2/ 7
EXECUTION ROCKS  0100            66 72  190/ 12/ 14   N/A
WESTERN LI SOUND 0100            65     170/ 10/ 14   N/A           0
CENTRAL LI SOUND 0000            66 72   CALM  /  4   N/A           1
EASTERN LI SOUND 0000            65 68  210/  8/ 12   N/A
ROBBINS REEF     0100            65     180/ 15/ 18 1017.9
$$


>>>>>>>>>>>>>>>>>>>>>>>>>>>> KEY <<<<<<<<<<<<<<<<<<<<<<<<<<<
>                                                          <
>     SKY/WX - SKY CONDITION/PRESENT WEATHER               <
>     TMP    - TEMPERATURE IN FAHRENHEIT                   <
>     DP     - DEWPOINT IN FAHRENHEIT                      <
>     RH     - RELATIVE HUMIDITY IN PERCENT                <
>     WIND   - DIRECTION AND SPEED IN MPH                  <
>     PRES   - MEAN SEA LEVEL PRESSURE IN INCHES OF HG     <
>     WCI    - WIND CHILL INDEX                            <
>     VSB    - VISIBILITY IN MILES                         <
>     HX     - HEAT INDEX                                  <
>     TC     - TEMPERATURE IN CELSIUS                      <
>     VRB    - VARIABLE WIND DIRECTION                     <
>                                                          <
>>>>>>>>>>>>>>>>>>>>>>>>>>>> KEY <<<<<<<<<<<<<<<<<<<<<<<<<<<




USA.gov is the U.S. government's official web portal to all federal, state and local government web resources and services.